Location: Unspecified
(16.9257°N, 0.0000°E)
Time: 05:06:10
(UTC+00:00)

MOZHAYETS 4 - Visible Passes

Search period start: 04 April 2026 00:00
Search period end: 14 April 2026 00:00
Orbit: 642 x 659 km, 98.3° (Epoch: 29 March)

Date Brightness Start Highest point End Pass type
(mag) Time Alt. Az. Time Alt. Az. Time Alt. Az.
4 Apr 11.0 04:19:41 10° E 04:21:42 13° ENE 04:23:42 10° NE visible
5 Apr 9.9 04:44:20 10° SE 04:48:10 28° ENE 04:51:58 10° NNE visible
6 Apr 8.2 05:10:15 10° SSE 05:14:42 63° ENE 05:19:07 10° N visible
6 Apr 11.5 18:54:16 10° WNW 18:55:16 11° WNW 18:56:16 10° W visible
8 Apr 10.8 04:28:38 10° ESE 04:31:31 17° ENE 04:34:23 10° NNE visible
9 Apr 9.4 04:53:52 10° SE 04:58:00 36° ENE 05:02:06 10° N visible
9 Apr 10.8 18:35:36 10° NNW 18:38:38 18° WNW 18:41:40 10° WSW visible
10 Apr 7.8 05:20:02 10° SSE 05:24:32 85° ENE 05:29:01 10° N visible
12 Apr 10.4 04:37:51 10° SE 04:41:18 22° ENE 04:44:44 10° NNE visible
13 Apr 8.8 05:03:28 10° SSE 05:07:47 48° ENE 05:12:06 10° N visible
13 Apr 11.1 18:46:06 10° NW 18:48:23 14° WNW 18:50:40 10° WSW visible
